Lancaster, CA

11:11 AM PDT on May 28, 2017 (GMT -0700)
Gen Fox

Weather History for KWJF - March, 2013

Change the Weather History Date:

Thursday, March 28, 2013

  Actual Average Record
Temperature  
Mean Temperature 64 °F 55 °F  
Max Temperature 78 °F 69 °F 85 °F (1953)
Min Temperature 49 °F 41 °F 28 °F (1975)
Degree Days  
Heating Degree Days 1    
Month to date heating degree days 196  
Since 1 July heating degree days 2568  
Cooling Degree Days 0    
Month to date cooling degree days 11  
Year to date cooling degree days 11  
Growing Degree Days 14 (Base 50)    
Moisture  
Dew Point 37 °F    
Average Humidity 46    
Maximum Humidity 71    
Minimum Humidity 20    
Precipitation  
Precipitation 0.00 in 0.03 in 0.62 in (1979)
Month to date precipitation 0.35 1.07  
Year to date precipitation 0.95 4.35  
Since 1 July precipitation 1.11  
Snow  
Snow 0.00 in - T in (1998)
Month to date snowfall 0.0  
Since 1 July snowfall 0.0  
Snow Depth 0.00 in    
Sea Level Pressure  
Sea Level Pressure 30.02 in    
Wind  
Wind Speed 9 mph (WSW)    
Max Wind Speed 30 mph    
Max Gust Speed 31 mph    
Visibility 10 miles    
Events      
T = Trace of Precipitation, MM = Missing Value Source: NWS Daily Summary

Daily Weather History Graph

Daily Weather History Graph

Search for Another Location

Airport or City:

Trip Planner

Search our weather history database for the weather conditions in past years. The results will help you decide how hot, cold, wet, or windy it might be!

Date:

Astronomy

Mar. 28, 2013 Rise Set
Actual Time 6:44 AM PDT 7:11 PM PDT
Civil Twilight 6:19 AM PDT 7:36 PM PDT
Nautical Twilight 5:49 AM PDT 8:06 PM PDT
Astronomical Twilight 5:19 AM PDT 8:36 PM PDT
Moon 9:02 PM PDT 7:20 AM PDT
Length of Visible Light 13h 16m
Length of Day
12h 26m
Full, 98% of the Moon is Illuminated
Mar 28
Full
Apr 2
Last Quarter
Apr 10
New
Apr 18
First Quarter
Apr 25
Full

Hourly Weather History & Observations

Time (PDT) Temp. Dew Point Humidity Pressure Visibility Wind Dir Wind Speed Gust Speed Precip Events Conditions
12:56 AM 52.0 °F 42.1 °F 69% 30.01 in 10.0 mi WSW 11.5 mph - N/A   Clear
1:56 AM 51.1 °F 42.1 °F 71% 30.00 in 10.0 mi West 9.2 mph - N/A   Clear
2:56 AM 50.0 °F 41.0 °F 71% 30.00 in 10.0 mi West 8.1 mph - N/A   Clear
3:56 AM 51.1 °F 41.0 °F 68% 29.99 in 10.0 mi West 10.4 mph - N/A   Clear
4:56 AM 52.0 °F 41.0 °F 66% 29.98 in 10.0 mi West 11.5 mph - N/A   Clear
5:56 AM 52.0 °F 41.0 °F 66% 29.99 in 10.0 mi West 9.2 mph - N/A   Clear
6:56 AM 51.1 °F 39.9 °F 66% 30.01 in 10.0 mi West 6.9 mph - N/A   Clear
7:56 AM 54.0 °F 41.0 °F 62% 30.03 in 10.0 mi North 4.6 mph - N/A   Clear
8:56 AM 60.1 °F 41.0 °F 49% 30.04 in 10.0 mi Calm Calm - N/A   Clear
9:56 AM 63.0 °F 39.9 °F 43% 30.04 in 10.0 mi Calm Calm - N/A   Clear
10:56 AM 68.0 °F 37.9 °F 33% 30.04 in 10.0 mi Variable 3.5 mph - N/A   Clear
11:56 AM 73.0 °F 30.0 °F 20% 30.02 in 10.0 mi West 13.8 mph 23.0 mph N/A   Clear
12:56 PM 73.9 °F 36.0 °F 25% 30.01 in 10.0 mi SSW 8.1 mph - N/A   Clear
1:56 PM 77.0 °F 35.1 °F 22% 29.99 in 10.0 mi SW 12.7 mph 20.7 mph N/A   Clear
2:56 PM 77.0 °F 36.0 °F 23% 29.98 in 10.0 mi WSW 10.4 mph 24.2 mph N/A   Clear
3:56 PM 75.9 °F 37.9 °F 25% 29.98 in 10.0 mi WSW 13.8 mph 24.2 mph N/A   Clear
4:56 PM 75.0 °F 36.0 °F 24% 30.00 in 10.0 mi WSW 20.7 mph 26.5 mph N/A   Scattered Clouds
5:56 PM 70.0 °F 35.1 °F 28% 30.03 in 10.0 mi West 20.7 mph 31.1 mph N/A   Partly Cloudy
6:56 PM 66.0 °F 35.1 °F 32% 30.04 in 10.0 mi WSW 10.4 mph - N/A   Clear
7:56 PM 64.0 °F 34.0 °F 33% 30.04 in 10.0 mi SSW 6.9 mph - N/A   Clear
8:56 PM 61.0 °F 32.0 °F 34% 30.02 in 10.0 mi SSE 4.6 mph - N/A   Clear
9:56 PM 55.9 °F 30.9 °F 39% 30.05 in 10.0 mi WNW 10.4 mph - N/A   Clear
10:56 PM 55.0 °F 35.1 °F 47% 30.06 in 10.0 mi West 4.6 mph - N/A   Clear
11:56 PM 54.0 °F 37.9 °F 55% 30.07 in 10.0 mi West 8.1 mph - N/A   Clear